| time (UTC) | temp C | wind direction | speed KPH | gust KPH | rain 1hr cm | rain 24hr cm | rain mn cm | humidity % | barometer mb |
| 20260507114503 | 14 | 47 | 3.2 | 9.7 | 0.00 | 0.00 | 0.00 | 64 | 1016.6 |
| 20260507113004 | 13 | 155 | 1.6 | 8.0 | 0.00 | 0.00 | 0.00 | 63 | 1016.8 |
| 20260507111504 | 13 | 181 | 3.2 | 9.7 | 0.00 | 0.00 | 0.00 | 64 | 1016.8 |
| 20260507110004 | 12 | 132 | 4.8 | 11.3 | 0.00 | 0.00 | 0.00 | 66 | 1016.9 |
| 20260507104505 | 11 | 166 | 3.2 | 9.7 | 0.00 | 0.00 | 0.00 | 70 | 1017.0 |
| 20260507103003 | 11 | 168 | 1.6 | 8.0 | 0.00 | 0.00 | 0.00 | 71 | 1017.0 |
| 20260507101503 | 11 | 231 | 0.0 | 3.2 | 0.00 | 0.00 | 0.00 | 72 | 1017.1 |
| 20260507100005 | 11 | 265 | 3.2 | 12.9 | 0.00 | 0.00 | 0.00 | 71 | 1017.1 |
| 20260507093004 | 13 | 157 | 4.8 | 9.7 | 0.00 | 0.00 | 0.00 | 69 | 1017.0 |
| 20260507091504 | 12 | 153 | 4.8 | 11.3 | 0.00 | 0.00 | 0.00 | 71 | 1017.1 |
| 20260507084503 | 12 | 157 | 6.4 | 11.3 | 0.00 | 0.00 | 0.00 | 76 | 1017.1 |
| 20260507081504 | 10 | 174 | 3.2 | 9.7 | 0.00 | 0.00 | 0.00 | 82 | 1017.1 |
| 20260507080004 | 10 | 172 | 3.2 | 9.7 | 0.00 | 0.00 | 0.00 | 82 | 1017.1 |
| 20260507074503 | 10 | 176 | 3.2 | 8.0 | 0.00 | 0.00 | 0.00 | 82 | 1017.0 |
| 20260507073004 | 10 | 134 | 1.6 | 8.0 | 0.00 | 0.00 | 0.00 | 84 | 1016.9 |
| 20260507071504 | 9 | 107 | 0.0 | 3.2 | 0.00 | 0.00 | 0.00 | 88 | 1016.9 |
| 20260507070009 | 8 | 152 | 1.6 | 1.6 | 0.00 | 0.00 | 0.00 | 89 | 1016.8 |
| 20260507064504 | 8 | 81 | 1.6 | 3.2 | 0.00 | 0.00 | 0.00 | 91 | 1016.8 |
| 20260507063004 | 7 | 75 | 0.0 | 1.6 | 0.00 | 0.00 | 0.00 | 92 | 1016.6 |
| 20260507061503 | 7 | 29 | 1.6 | 3.2 | 0.00 | 0.00 | 0.00 | 92 | 1016.5 |
| 20260507060004 | 6 | 55 | 0.0 | 1.6 | 0.00 | 0.00 | 0.00 | 92 | 1016.4 |
| 20260507054503 | 6 | 24 | 0.0 | 1.6 | 0.00 | 0.00 | 0.00 | 92 | 1016.4 |
| 20260507053005 | 6 | 32 | 0.0 | 1.6 | 0.00 | 0.00 | 0.00 | 92 | 1016.3 |
| 20260507051504 | 6 | 26 | 0.0 | 3.2 | 0.00 | 0.00 | 0.00 | 92 | 1016.3 |
| 20260507050005 | 6 | 63 | 1.6 | 1.6 | 0.00 | 0.00 | 0.00 | 92 | 1016.2 |
| 20260507044503 | 6 | 13 | 0.0 | 1.6 | 0.00 | 0.00 | 0.00 | 91 | 1016.1 |
| 20260507043004 | 6 | 49 | 0.0 | 3.2 | 0.00 | 0.00 | 0.00 | 91 | 1016.1 |
| 20260507040004 | 7 | 91 | 0.0 | 3.2 | 0.00 | 0.00 | 0.00 | 91 | 1016.1 |
| 20260507034503 | 7 | 79 | 1.6 | 4.8 | 0.00 | 0.00 | 0.00 | 91 | 1016.1 |
| 20260507033004 | 7 | 17 | 1.6 | 4.8 | 0.00 | 0.00 | 0.00 | 91 | 1016.1 |
| 20260507031504 | 6 | 349 | 1.6 | 3.2 | 0.00 | 0.00 | 0.00 | 91 | 1016.0 |
| 20260507030003 | 6 | 323 | 1.6 | 3.2 | 0.00 | 0.00 | 0.00 | 91 | 1016.1 |
| 20260507024504 | 6 | 329 | 1.6 | 3.2 | 0.00 | 0.00 | 0.00 | 91 | 1016.0 |
| 20260507023004 | 6 | 349 | 1.6 | 1.6 | 0.00 | 0.00 | 0.00 | 91 | 1016.1 |
| 20260507021504 | 6 | 349 | 0.0 | 1.6 | 0.00 | 0.00 | 0.00 | 92 | 1016.1 |
| 20260507020005 | 6 | 349 | 0.0 | 1.6 | 0.00 | 0.00 | 0.00 | 91 | 1016.1 |
| 20260507014503 | 6 | 9 | 0.0 | 1.6 | 0.00 | 0.00 | 0.00 | 91 | 1016.1 |
| 20260507013004 | 6 | 10 | 0.0 | 3.2 | 0.00 | 0.00 | 0.00 | 91 | 1016.1 |
| 20260507011503 | 6 | 342 | 1.6 | 3.2 | 0.00 | 0.00 | 0.00 | 91 | 1016.1 |
| 20260507010004 | 6 | 339 | 1.6 | 3.2 | 0.00 | 0.00 | 0.00 | 91 | 1016.1 |
| 20260507004504 | 5 | 327 | 0.0 | 1.6 | 0.00 | 0.00 | 0.00 | 91 | 1016.2 |
| 20260507003004 | 5 | 305 | 0.0 | 1.6 | 0.00 | 0.00 | 0.00 | 91 | 1016.3 |
| 20260507001504 | 5 | 342 | 0.0 | 1.6 | 0.00 | 0.00 | 0.00 | 90 | 1016.1 |
| 20260507000004 | 5 | 342 | 0.0 | 1.6 | 0.00 | 0.00 | 0.00 | 90 | 1016.0 |
| 20260506234504 | 6 | 342 | 0.0 | 1.6 | 0.00 | 0.00 | 0.00 | 89 | 1016.1 |
| 20260506230004 | 7 | 43 | 0.0 | 1.6 | 0.00 | 0.00 | 0.00 | 89 | 1016.3 |
| 20260506224504 | 7 | 58 | 0.0 | 4.8 | 0.00 | 0.00 | 0.00 | 90 | 1016.3 |
| 20260506223004 | 7 | 33 | 0.0 | 1.6 | 0.00 | 0.00 | 0.00 | 90 | 1016.3 |
| 20260506221505 | 6 | 16 | 0.0 | 4.8 | 0.00 | 0.00 | 0.00 | 90 | 1016.3 |
| 20260506220005 | 6 | 31 | 0.0 | 3.2 | 0.00 | 0.00 | 0.00 | 90 | 1016.3 |
| 20260506214504 | 6 | 31 | 1.6 | 8.0 | 0.00 | 0.00 | 0.00 | 90 | 1016.2 |
| 20260506213004 | 6 | 1 | 1.6 | 1.6 | 0.00 | 0.00 | 0.00 | 89 | 1016.1 |
| 20260506211503 | 6 | 333 | 1.6 | 1.6 | 0.00 | 0.00 | 0.00 | 88 | 1016.0 |
| 20260506210004 | 6 | 25 | 0.0 | 3.2 | 0.00 | 0.00 | 0.00 | 88 | 1016.0 |
| 20260506204504 | 7 | 337 | 1.6 | 8.0 | 0.00 | 0.00 | 0.00 | 87 | 1015.8 |
| 20260506201503 | 7 | 12 | 4.8 | 8.0 | 0.00 | 0.00 | 0.00 | 86 | 1015.8 |
| 20260506200004 | 7 | 9 | 3.2 | 9.7 | 0.00 | 0.00 | 0.00 | 86 | 1015.6 |
| 20260506194504 | 7 | 23 | 3.2 | 9.7 | 0.00 | 0.00 | 0.00 | 84 | 1015.6 |
| 20260506193004 | 8 | 13 | 3.2 | 14.5 | 0.00 | 0.00 | 0.00 | 83 | 1015.6 |
| 20260506191504 | 8 | 4 | 6.4 | 12.9 | 0.00 | 0.00 | 0.00 | 82 | 1015.5 |
| 20260506184503 | 9 | 15 | 3.2 | 16.1 | 0.00 | 0.00 | 0.00 | 79 | 1015.2 |
| 20260506183004 | 9 | 17 | 3.2 | 12.9 | 0.00 | 0.00 | 0.00 | 78 | 1015.1 |
| 20260506181503 | 10 | 77 | 4.8 | 20.9 | 0.00 | 0.00 | 0.00 | 75 | 1014.8 |
| 20260506180004 | 10 | 91 | 4.8 | 12.9 | 0.00 | 0.00 | 0.00 | 74 | 1014.7 |
| 20260506174503 | 10 | 63 | 8.0 | 19.3 | 0.00 | 0.00 | 0.00 | 73 | 1014.5 |
| 20260506173004 | 11 | 40 | 4.8 | 16.1 | 0.00 | 0.00 | 0.00 | 71 | 1014.5 |
| 20260506164504 | 11 | 5 | 9.7 | 19.3 | 0.00 | 0.00 | 0.00 | 68 | 1014.2 |
| 20260506163004 | 11 | 354 | 4.8 | 14.5 | 0.00 | 0.00 | 0.00 | 65 | 1014.2 |
| 20260506161504 | 11 | 333 | 8.0 | 14.5 | 0.00 | 0.00 | 0.00 | 61 | 1014.1 |
| 20260506154504 | 11 | 28 | 3.2 | 9.7 | 0.00 | 0.00 | 0.00 | 62 | 1014.3 |
| 20260506153005 | 11 | 350 | 4.8 | 14.5 | 0.00 | 0.00 | 0.00 | 62 | 1014.6 |
| 20260506144504 | 11 | 24 | 3.2 | 9.7 | 0.00 | 0.00 | 0.00 | 66 | 1014.6 |
| 20260506143004 | 11 | 25 | 8.0 | 14.5 | 0.00 | 0.00 | 0.00 | 65 | 1014.5 |
| 20260506141503 | 11 | 11 | 4.8 | 19.3 | 0.00 | 0.00 | 0.00 | 65 | 1014.4 |
| 20260506140004 | 11 | 50 | 3.2 | 12.9 | 0.00 | 0.00 | 0.00 | 63 | 1014.5 |
| 20260506134504 | 11 | 25 | 4.8 | 16.1 | 0.00 | 0.00 | 0.00 | 62 | 1014.4 |
| 20260506133004 | 12 | 30 | 8.0 | 16.1 | 0.00 | 0.00 | 0.00 | 62 | 1014.5 |
| 20260506131504 | 11 | 27 | 6.4 | 19.3 | 0.00 | 0.00 | 0.00 | 63 | 1014.4 |
| 20260506124505 | 11 | 33 | 8.0 | 14.5 | 0.00 | 0.00 | 0.00 | 68 | 1014.7 |
| 20260506123004 | 10 | 35 | 3.2 | 16.1 | 0.00 | 0.00 | 0.00 | 72 | 1014.6 |
| 20260506120004 | 10 | 17 | 4.8 | 12.9 | 0.00 | 0.00 | 0.00 | 76 | 1014.8 |